Weather History for South Haven, MI

Change the Weather History Date:

Thursday, January 31, 2013

  Actual Average (KBIV) Record (KBIV)
Temperature  
Mean Temperature 18 °F 26 °F  
Max Temperature 21 °F 32 °F 56 °F (2012)
Min Temperature 16 °F 20 °F -4 °F (1949)
Degree Days  
Heating Degree Days 46 39  
Month to date heating degree days 1200  
Since 1 July heating degree days 3474  
Cooling Degree Days 0 0  
Month to date cooling degree days 0  
Year to date cooling degree days 0  
Moisture  
Dew Point 12 °F    
Average Humidity 77    
Maximum Humidity 93    
Minimum Humidity 64    
Precipitation  
Precipitation 0.00 in 0.07 in 0.36 in (2002)
Month to date precipitation 2.09  
Year to date precipitation 2.09  
Sea Level Pressure  
Sea Level Pressure 29.83 in    
Wind  
Wind Speed 17 mph (WNW)    
Max Wind Speed 22 mph    
Max Gust Speed 33 mph    
Visibility 2 miles    
Events Snow    
T = Trace of Precipitation, MM = Missing Value Source: NWS Daily Summary

Daily Weather History Graph

Daily Weather History Graph

Search for Another Location

Airport:

Trip Planner

Search our weather history database for the weather conditions in past years. The results will help you decide how hot, cold, wet, or windy it might be!

Date:

Astronomy

Jan. 31, 2013 Rise Set
Actual Time 7:59 AM EST 5:58 PM EST
Civil Twilight 7:29 AM EST 6:28 PM EST
Nautical Twilight 6:55 AM EST 7:01 PM EST
Astronomical Twilight 6:22 AM EST 7:34 PM EST
Moon 11:07 PM EST (1/31) 9:52 AM EST (1/31)
Length of Visible Light 10h 58m
Length of Day
9h 58m
Waning Gibbous, 80% of the Moon is Illuminated
Jan 31
Waning Gibbous
Feb 3
Last Quarter
Feb 10
New
Feb 17
First Quarter
Feb 25
Full

Hourly Weather History & Observations

Time (EST) Temp. Windchill Dew Point Humidity Pressure Visibility Wind Dir Wind Speed Gust Speed Precip Events Conditions
12:16 AM - - - N/A% - 3.0 mi WNW 20.7 mph 29.9 mph N/A   Unknown
12:36 AM - - - N/A% - 4.0 mi West 18.4 mph 27.6 mph N/A   Unknown
1:16 AM - - - N/A% - 3.0 mi West 17.3 mph 24.2 mph N/A   Unknown
1:36 AM - - - N/A% - 4.0 mi West 21.9 mph 31.1 mph N/A   Unknown
1:56 AM - - - N/A% - 3.0 mi West 19.6 mph 33.4 mph N/A   Unknown
2:16 AM - - - N/A% - 4.0 mi West 13.8 mph 29.9 mph N/A   Unknown
2:37 AM - - - N/A% - 3.0 mi West 18.4 mph 31.1 mph N/A   Unknown
2:57 AM - - - N/A% - 3.0 mi West 17.3 mph 27.6 mph N/A   Unknown
3:16 AM - - - N/A% - 2.5 mi West 21.9 mph 32.2 mph N/A   Unknown
3:38 AM - - - N/A% - 4.0 mi West 19.6 mph 26.5 mph N/A   Unknown
3:57 AM - - - N/A% - 5.0 mi West 16.1 mph 29.9 mph N/A   Unknown
4:17 AM - - - N/A% - 3.0 mi West 20.7 mph 33.4 mph N/A   Unknown
4:38 AM - - - N/A% - 3.0 mi West 19.6 mph 29.9 mph N/A   Unknown
4:56 AM - - - N/A% - 4.0 mi West 16.1 mph 27.6 mph N/A   Unknown
5:18 AM - - - N/A% - 1.8 mi West 15.0 mph 31.1 mph N/A   Unknown
5:36 AM - - - N/A% - 3.0 mi West 17.3 mph 29.9 mph N/A   Unknown
5:57 AM 21.2 °F 6.0 °F 14.0 °F 74% 29.61 in 5.0 mi West 19.6 mph 26.5 mph N/A   Haze
6:16 AM 21.2 °F 7.3 °F 12.2 °F 68% 29.62 in 5.0 mi West 16.1 mph 27.6 mph N/A   Haze
6:36 AM - - - N/A% - 3.0 mi West 12.7 mph 27.6 mph N/A   Unknown
6:57 AM - - - N/A% - 0.8 mi West 19.6 mph 25.3 mph N/A   Unknown
7:16 AM - - - N/A% - 1.5 mi WNW 16.1 mph 26.5 mph N/A   Unknown
7:36 AM - - - N/A% - 2.0 mi West 17.3 mph 26.5 mph N/A   Unknown
7:57 AM 19.4 °F 6.0 °F 10.4 °F 68% 29.67 in 7.0 mi WNW 13.8 mph 26.5 mph N/A   Overcast
8:17 AM - - - N/A% - 2.5 mi WNW 17.3 mph 25.3 mph N/A   Unknown
8:38 AM - - - N/A% - 1.5 mi West 13.8 mph 25.3 mph N/A   Unknown
8:56 AM - - - N/A% - 2.5 mi West 18.4 mph 24.2 mph N/A   Unknown
9:16 AM - - - N/A% - 3.0 mi West 18.4 mph 24.2 mph N/A   Unknown
9:36 AM - - - N/A% - 2.5 mi West 16.1 mph 24.2 mph N/A   Unknown
9:56 AM - - - N/A% - 1.5 mi West 10.4 mph 24.2 mph N/A   Unknown
10:56 AM - - - N/A% - 0.5 mi West 12.7 mph 25.3 mph N/A   Unknown
11:36 AM 17.6 °F 3.2 °F 15.8 °F 93% 29.76 in 0.2 mi West 15.0 mph 27.6 mph N/A Snow Snow
12:14 PM 19.2 °F 4.3 °F 10.8 °F 70% 29.77 in 3.0 mi WNW 17.3 mph 26.5 mph N/A   Haze
12:16 PM 19.4 °F 5.0 °F 10.4 °F 68% 29.77 in 3.0 mi WNW 16.1 mph 26.5 mph N/A   Haze
12:34 PM 19.8 °F 5.4 °F 9.3 °F 64% 29.77 in 7.0 mi WNW 16.1 mph 26.5 mph N/A   Overcast
12:55 PM 19.4 °F 5.5 °F 9.7 °F 66% 29.77 in 4.0 mi WNW 15.0 mph 24.2 mph N/A   Haze
1:14 PM 19.8 °F 6.5 °F 10.4 °F 67% 29.77 in 4.0 mi West 13.8 mph 24.2 mph N/A   Haze
1:35 PM 19.6 °F 5.7 °F 10.2 °F 67% 29.78 in 3.0 mi WNW 15.0 mph 25.3 mph N/A   Haze
1:55 PM 19.4 °F 3.6 °F 10.2 °F 68% 29.78 in 2.5 mi West 19.6 mph 26.5 mph N/A   Haze
2:15 PM 18.9 °F 4.3 °F 11.7 °F 74% 29.79 in 1.8 mi West 16.1 mph 21.9 mph N/A Snow Light Snow
2:34 PM 18.3 °F 4.1 °F 11.1 °F 73% 29.80 in 1.8 mi West 15.0 mph 26.5 mph N/A Snow Light Snow
2:55 PM 18.3 °F 5.9 °F 11.7 °F 75% 29.80 in 1.5 mi West 11.5 mph 20.7 mph N/A Snow Light Snow
3:14 PM 18.1 °F 5.0 °F 12.0 °F 77% 29.81 in 1.8 mi WNW 12.7 mph 21.9 mph N/A Snow Light Snow
3:35 PM 18.5 °F 3.8 °F 10.9 °F 72% 29.81 in 2.5 mi West 16.1 mph 20.7 mph N/A Snow Light Snow
3:55 PM 18.1 °F 5.6 °F 12.2 °F 78% 29.81 in 1.5 mi WNW 11.5 mph 24.2 mph N/A Snow Light Snow
4:15 PM 17.8 °F 5.9 °F 13.8 °F 84% 29.82 in 0.5 mi WNW 10.4 mph 18.4 mph N/A Snow Snow
4:35 PM 18.1 °F 6.3 °F 13.8 °F 83% 29.82 in 1.5 mi West 10.4 mph 17.3 mph N/A Snow Light Snow
4:55 PM 17.8 °F 3.4 °F 12.4 °F 79% 29.82 in 1.8 mi West 15.0 mph 18.4 mph N/A Snow Light Snow
5:15 PM 17.6 °F 4.3 °F 13.8 °F 85% 29.82 in 0.8 mi West 12.7 mph 21.9 mph N/A Snow Light Snow
5:34 PM 18.0 °F 4.2 °F 11.5 °F 76% 29.83 in 2.0 mi West 13.8 mph 25.3 mph N/A Snow Light Snow
5:55 PM 17.6 °F 3.2 °F 11.7 °F 78% 29.84 in 1.2 mi West 15.0 mph 21.9 mph N/A Snow Light Snow
6:14 PM 17.4 °F 4.7 °F 12.7 °F 82% 29.85 in 1.8 mi WNW 11.5 mph 21.9 mph N/A Snow Light Snow
6:35 PM 16.7 °F 1.5 °F 13.3 °F 86% 29.86 in 0.8 mi WNW 16.1 mph 28.8 mph N/A Snow Snow
6:55 PM 17.4 °F 2.4 °F 12.2 °F 80% 29.87 in 2.0 mi WNW 16.1 mph 25.3 mph N/A Snow Light Snow
7:15 PM 17.2 °F 3.3 °F 11.8 °F 79% 29.88 in 1.8 mi WNW 13.8 mph 24.2 mph N/A Snow Light Snow
7:35 PM 17.4 °F 4.1 °F 10.6 °F 75% 29.89 in 3.0 mi WNW 12.7 mph 24.2 mph N/A Snow Light Snow
7:54 PM 17.1 °F 1.5 °F 10.8 °F 76% 29.89 in 2.0 mi West 17.3 mph 23.0 mph N/A Snow Light Snow
8:15 PM 16.7 °F 1.0 °F 11.1 °F 79% 29.90 in 2.0 mi West 17.3 mph 25.3 mph N/A Snow Light Snow
8:35 PM 16.7 °F 2.6 °F 11.1 °F 79% 29.90 in 1.5 mi West 13.8 mph 27.6 mph N/A Snow Light Snow
9:15 PM 16.7 °F 1.5 °F 11.7 °F 81% 29.92 in 1.8 mi WNW 16.1 mph 25.3 mph N/A Snow Light Snow
9:34 PM 16.3 °F 2.1 °F 11.7 °F 82% 29.92 in 1.2 mi West 13.8 mph 23.0 mph N/A Snow Light Snow
9:55 PM 16.7 °F 2.0 °F 9.5 °F 73% 29.93 in 3.0 mi WNW 15.0 mph 25.3 mph N/A Snow Light Snow
10:15 PM 16.3 °F 1.0 °F 11.7 °F 82% 29.94 in 1.2 mi WNW 16.1 mph 27.6 mph N/A Snow Light Snow
10:35 PM 16.3 °F 1.6 °F 12.7 °F 86% 29.94 in 1.0 mi West 15.0 mph 21.9 mph N/A Snow Light Snow
10:55 PM 16.7 °F 2.6 °F 12.7 °F 84% 29.95 in 1.2 mi WNW 13.8 mph 24.2 mph N/A Snow Light Snow
11:14 PM 16.7 °F 3.8 °F 11.8 °F 81% 29.95 in 1.5 mi WNW 11.5 mph 23.0 mph N/A Snow Light Snow
11:35 PM 16.3 °F 0.5 °F 13.1 °F 87% 29.96 in 1.0 mi WNW 17.3 mph 21.9 mph N/A Snow Light Snow
11:54 PM 17.2 °F 2.2 °F 10.9 °F 76% 29.96 in 2.5 mi WNW 16.1 mph 24.2 mph N/A Snow Light Snow